Terminal Aerodrome Forecast
Issued by NWS Newport/Morehead City, NC

Home | Current Version | Previous Version | Text Only | Print | Product List | Glossary On
Versions: 1 2 3 4 5 6 7 8 9 10 11 12
000
FTUS42 KMHX 201100
TAFEWN
TAF
KEWN 201125Z 2012/2112 22005KT P6SM SKC
     FM201500 25011G18KT P6SM SKC
     FM202200 24004KT P6SM SKC
     FM210600 33005KT P6SM SKC=

USA.gov is the U.S. government's official web portal to all federal, state and local government web resources and services.